Theta_e
303 303 303 302 302 303 303 304 304 304 304 304 305 305 305 307 308 307 305 307 300 293 295 296 296 291 291 290 287 293 292 294 293 288 287 288 286 288 288 289 288 288 286 286 288 286 288 303 304 299 301 307 307 308
304 304 304 304 303 303 303 303 303 304 304 304 304 305 305 306 307 307 303 308 305 296 296 302 301 301 297 296 292 292 293 292 293 289 290 289 287 288 287 287 294 288 292 292 293 292 298 302 302 306 307 306 307 308
305 305 304 304 304 303 303 303 303 304 304 305 304 305 305 305 306 307 305 305 303 296 297 299 297 301 302 300 302 291 294 296 295 299 292 292 286 289 285 287 289 295 298 294 296 295 296 299 305 306 307 307 308 310
305 305 305 304 304 304 303 304 303 303 304 304 305 305 304 304 305 306 304 306 303 297 289 297 306 300 304 304 301 300 297 299 298 299 294 293 289 295 289 289 289 291 292 291 295 298 298 300 303 304 305 307 308 310
305 305 305 304 304 304 304 304 304 303 303 304 305 305 304 304 305 306 305 306 306 298 293 296 302 304 304 304 301 300 297 296 295 294 294 291 294 294 297 294 292 296 292 290 290 299 297 298 302 304 303 305 305 308
304 305 305 305 305 304 304 303 304 304 304 304 304 304 304 306 306 305 301 307 308 303 293 289 303 302 304 304 303 302 299 297 296 294 295 299 300 297 290 290 295 298 299 299 296 301 301 304 304 304 303 303 305 307
304 304 304 305 305 304 304 304 304 304 304 304 305 304 306 307 306 304 301 305 305 303 293 290 297 303 304 304 303 302 302 300 297 296 296 297 296 298 292 290 295 296 298 298 300 300 300 302 302 303 303 304 305 308
304 304 304 304 304 304 304 304 304 304 304 304 304 303 306 305 304 304 307 304 306 301 299 290 294 299 305 301 297 306 300 300 299 297 299 294 296 296 291 293 294 296 297 297 297 299 299 302 304 303 305 304 304 307
304 304 304 304 305 304 304 304 303 304 304 303 302 306 307 305 305 303 305 304 307 302 292 291 289 288 305 299 302 300 303 294 302 295 295 294 292 289 291 294 295 296 296 297 299 300 301 300 302 304 305 305 304 306
304 304 304 304 304 304 304 304 303 304 303 302 303 304 302 305 304 305 301 297 297 298 299 293 300 294 298 298 297 297 301 298 293 297 298 293 293 296 299 299 299 299 300 301 299 298 300 300 302 304 305 305 305 305
302 303 304 304 304 305 304 304 303 303 303 302 296 297 301 304 303 301 295 294 295 293 297 298 300 297 301 292 291 295 292 296 291 294 294 293 292 297 301 301 302 302 302 302 302 302 303 304 306 304 306 306 306 306
300 302 303 304 304 304 304 304 303 303 302 300 298 299 298 297 299 295 295 297 295 294 299 298 299 300 299 299 292 294 289 294 288 297 293 289 295 300 300 300 303 305 304 303 304 301 302 305 307 307 305 307 307 307
300 302 303 303 304 303 304 302 302 302 302 302 295 292 294 299 288 290 287 292 293 297 299 299 297 301 298 297 292 291 286 289 299 290 291 295 297 301 301 302 303 304 303 304 303 303 302 304 306 306 305 308 307 307
300 301 302 303 303 303 301 302 302 302 300 296 292 287 293 291 294 295 295 296 300 300 300 300 299 298 298 293 293 286 294 294 287 285 287 296 299 301 302 303 303 301 303 302 302 301 302 303 304 303 305 307 307 307
299 301 302 303 301 301 301 301 301 303 299 293 294 287 292 298 300 300 301 301 301 304 301 299 299 299 296 293 293 290 288 285 287 287 296 300 302 302 302 303 303 303 304 304 303 301 301 303 305 306 309 311 309 309
298 300 302 299 299 301 302 302 303 303 298 293 293 293 298 297 296 298 299 298 303 303 303 300 295 293 292 293 288 286 285 285 289 293 300 302 302 303 303 304 304 304 304 304 303 303 303 304 304 306 308 308 310 311
299 300 301 301 301 301 301 298 300 293 293 293 293 300 297 298 297 297 299 299 304 300 295 297 289 289 295 291 288 290 287 291 298 299 302 303 303 303 304 304 304 304 305 305 304 304 304 305 305 306 306 307 308 310
295 298 300 301 301 299 299 298 297 294 291 296 295 299 301 301 299 299 301 302 301 299 298 294 298 292 289 288 292 295 299 301 301 301 302 303 305 305 304 304 304 305 305 306 306 305 304 305 304 301 301 305 306 305
296 298 299 300 300 295 293 294 297 291 293 298 300 301 301 300 302 303 302 303 304 303 301 298 293 292 294 296 295 297 300 300 299 301 303 304 306 305 304 304 304 304 305 306 307 306 306 305 306 306 305 303 301 302
297 299 299 298 297 292 289 292 299 293 291 298 300 299 300 300 301 301 301 301 301 299 296 294 294 296 297 300 301 301 302 304 302 300 299 304 307 305 305 304 303 304 304 305 306 300 306 305 306 306 305 303 301 301
296 299 298 296 294 292 290 294 292 294 295 294 298 299 298 301 298 298 298 301 298 296 293 297 297 299 302 303 303 304 303 304 302 301 302 302 303 304 305 304 304 303 302 303 303 304 303 305 307 305 305 303 303 303
295 297 296 296 290 291 290 296 293 294 292 294 295 297 295 294 295 296 299 296 295 297 298 299 300 300 300 301 303 305 305 306 305 302 295 298 302 299 299 302 302 300 301 303 304 304 305 306 306 306 305 303 301 302
295 295 292 292 287 287 288 296 291 292 289 292 295 291 292 293 296 299 294 297 298 301 301 301 301 302 301 302 305 305 306 305 303 302 302 302 302 302 302 303 303 301 300 302 305 306 304 296 302 304 305 304 301 301
296 290 286 285 286 284 290 289 291 291 293 292 291 289 292 294 298 294 290 295 298 301 300 300 300 300 302 302 302 304 305 306 304 303 303 301 300 301 303 303 303 304 304 305 305 305 305 302 297 300 301 300 300 299
284 284 286 282 288 285 285 286 288 289 287 289 288 289 292 296 290 289 290 295 297 297 298 300 301 300 299 300 302 304 307 305 302 301 301 303 301 300 301 302 302 304 305 303 302 302 302 301 300 299 298 297 298 298
280 285 283 284 285 285 286 284 285 287 288 287 288 292 296 291 287 287 292 296 297 298 299 299 299 299 299 299 300 303 305 306 304 301 301 301 301 300 299 299 299 299 304 303 301 300 300 300 300 298 298 296 290 294
278 282 287 292 289 288 286 289 291 289 286 286 289 289 289 284 285 291 296 298 298 299 300 300 301 300 300 301 303 306 306 306 304 302 303 303 302 303 303 299 298 301 303 302 301 300 299 298 298 297 294 294 293 292
284 285 282 286 286 287 284 286 286 285 287 292 291 286 286 287 289 296 298 300 300 300 301 301 301 302 305 304 305 305 304 304 304 303 302 302 303 303 303 303 302 287 300 299 300 300 299 298 297 296 293 292 291 291
283 286 286 282 284 285 285 285 286 289 292 290 288 287 289 294 298 299 299 300 301 299 298 299 301 302 304 305 304 304 304 302 299 297 296 296 297 298 301 302 302 302 301 298 283 289 294 294 295 295 294 293 292 291
283 287 283 283 282 281 285 288 287 290 292 291 292 292 292 294 298 301 299 298 297 297 298 299 299 299 299 299 299 300 303 303 302 299 297 297 298 299 299 300 300 301 301 301 299 296 286 293 291 296 293 293 291 290
287 286 283 283 283 286 288 290 291 291 290 290 291 289 290 292 295 298 295 296 298 298 298 298 297 298 298 297 297 295 293 296 296 296 298 298 298 298 299 300 301 300 299 299 298 297 296 294 293 291 290 289 287 286
285 283 283 281 283 288 290 288 288 288 288 287 287 289 289 289 289 289 289 290 294 294 290 296 294 292 294 294 294 294 290 294 294 294 294 295 296 296 299 299 299 298 297 295 295 295 292 291 291 289 288 286 286 285
283 285 285 284 284 284 287 286 286 286 288 288 288 290 290 289 283 284 289 288 287 287 291 292 292 291 291 291 289 288 287 288 285 283 284 284 284 288 295 296 295 293 292 293 292 291 289 288 288 287 286 286 284 284
Wind_Speed
17 18 19 19 20 20 21 22 22 21 21 21 19 19 17 14 11 4 4 8 4 4 13 13 9 4 3 3 3 7 8 1 5 5 4 6 4 4 5 4 4 8 6 5 4 4 5 16 3 6 8 7 8 9
17 17 18 19 19 19 20 21 23 23 21 21 20 19 17 14 11 6 4 5 6 4 8 17 17 14 12 16 8 3 6 5 4 3 3 4 3 3 7 1 6 4 2 2 3 4 3 7 10 9 9 9 9 12
18 18 18 19 19 19 20 21 22 24 23 22 22 20 18 15 12 7 5 3 3 4 8 3 3 3 4 9 10 3 2 2 4 2 2 3 3 3 4 3 4 7 11 3 6 8 7 7 6 10 13 11 13 12
18 19 19 20 19 19 20 21 22 23 25 24 23 21 19 16 11 9 5 4 3 3 4 3 5 4 6 8 6 8 9 4 6 5 3 4 4 4 3 3 3 4 6 6 6 6 5 5 9 13 15 15 15 15
17 18 18 19 22 20 20 22 22 23 25 26 26 24 21 16 9 7 5 5 6 3 5 7 14 3 4 8 10 10 9 8 3 4 3 3 3 4 3 4 2 1 4 4 3 12 6 10 15 16 17 15 17 16
17 18 18 19 19 22 21 22 23 24 25 28 29 27 23 12 9 5 5 5 6 4 3 4 4 5 2 3 5 5 8 5 3 3 6 4 4 5 4 3 4 7 8 6 8 15 16 16 17 16 10 15 17 19
17 17 18 19 19 20 20 21 23 24 26 27 26 26 18 5 8 3 5 5 7 5 2 5 4 3 4 1 3 3 6 3 3 4 3 5 3 7 3 4 15 16 16 15 15 17 20 17 10 15 15 17 17 19
18 17 17 19 18 18 19 21 24 24 26 27 25 17 4 9 2 4 4 8 8 3 3 4 5 4 3 2 1 1 2 3 3 3 2 3 5 5 3 13 16 16 15 15 13 12 16 19 20 20 17 14 16 15
17 18 17 18 18 18 18 20 24 25 28 27 20 5 5 6 3 4 3 7 3 3 2 2 3 4 3 1 2 3 2 2 1 1 1 2 2 2 6 14 15 15 12 15 16 16 18 17 18 18 18 15 14 13
17 18 17 17 17 17 17 18 22 24 28 24 6 5 4 4 6 7 4 4 3 3 4 4 2 3 3 3 2 3 2 2 3 2 1 2 2 3 7 10 11 12 14 14 13 9 12 15 15 17 16 12 11 13
18 18 18 18 17 18 18 17 20 21 12 5 5 3 5 2 4 4 3 4 4 4 5 4 5 4 2 2 2 1 3 3 4 4 2 0 2 11 14 15 13 11 13 12 12 14 15 14 15 13 15 13 12 12
19 19 18 18 18 18 18 17 17 9 7 9 9 7 4 3 5 5 4 3 5 2 6 4 2 3 2 1 2 1 3 2 2 4 3 3 6 14 15 15 17 17 18 18 13 13 15 16 14 12 11 12 11 11
20 18 18 18 19 17 18 12 12 14 15 2 3 4 3 2 3 6 6 4 3 5 4 2 3 2 3 2 3 2 2 2 2 2 2 2 8 12 14 14 16 18 19 21 18 14 15 17 10 8 8 9 9 9
21 20 19 19 18 16 7 14 15 10 6 4 3 5 6 5 6 4 5 3 2 3 3 3 1 3 3 3 1 3 1 0 2 2 2 5 10 12 12 13 15 16 16 17 17 15 17 14 9 4 6 6 7 8
21 20 21 17 3 10 15 16 17 5 4 5 4 7 7 7 4 4 4 4 5 3 3 3 2 3 3 3 2 2 3 3 2 2 2 5 9 10 12 12 15 16 16 15 13 13 15 15 11 9 6 5 4 6
20 18 3 3 7 15 20 16 5 3 3 5 7 6 5 6 7 6 7 7 4 3 2 3 2 4 4 2 4 4 3 4 3 3 5 5 7 7 9 12 13 14 15 12 12 15 12 14 13 11 11 11 11 9
18 3 8 11 15 19 19 5 3 6 6 6 7 8 10 8 7 7 4 5 5 5 5 3 4 2 3 3 2 4 4 3 4 5 4 4 7 6 7 9 12 13 14 14 12 10 12 13 16 16 15 14 12 11
10 9 17 18 14 7 3 4 4 5 8 8 7 7 8 7 8 7 5 5 6 6 4 6 2 6 4 3 3 5 6 5 4 4 4 6 6 3 4 7 10 11 13 14 13 12 13 15 15 10 13 14 11 12
15 14 20 16 7 3 5 4 4 6 8 7 8 9 7 7 8 8 7 5 6 5 3 4 7 7 8 5 6 4 3 5 4 3 3 4 3 3 4 5 7 9 10 12 12 10 10 12 10 10 10 9 8 9
21 15 11 8 3 3 6 5 3 6 5 4 5 7 7 7 6 5 7 6 7 5 7 7 11 10 8 8 6 5 3 4 4 5 4 2 1 3 2 5 6 9 7 8 8 9 10 10 10 10 9 11 10 10
14 1 4 2 2 4 5 4 5 4 5 5 6 5 6 4 7 8 7 6 8 6 10 10 11 11 11 10 7 4 6 6 5 4 1 1 4 4 3 3 5 6 7 6 7 7 8 9 9 8 10 11 10 11
5 3 3 4 4 4 6 6 6 5 5 7 8 8 8 8 10 9 5 6 6 10 10 10 10 9 9 10 8 10 8 9 6 4 2 3 2 3 5 4 5 6 7 6 7 7 7 8 9 8 10 10 10 9
11 5 4 4 6 5 7 5 6 5 6 4 3 4 4 4 3 1 4 5 5 4 6 7 7 10 9 7 6 9 10 10 6 5 5 3 1 2 3 2 3 5 6 6 6 6 5 6 8 9 9 9 10 10
5 4 5 5 8 6 4 5 4 5 5 8 6 8 7 4 2 4 6 8 6 4 4 7 6 6 6 8 7 9 10 8 6 6 4 3 1 3 2 2 3 4 5 6 5 6 6 7 7 7 8 9 9 9
4 6 5 8 5 5 7 6 12 8 11 10 12 10 3 3 4 5 6 5 3 5 5 3 4 6 6 6 6 6 10 9 8 7 5 2 2 4 3 3 5 5 5 5 7 8 8 6 7 7 7 9 12 11
8 8 9 6 5 7 8 6 7 10 13 12 6 4 1 4 6 6 3 3 4 4 5 5 6 6 6 7 6 8 10 8 7 7 6 4 3 2 2 2 4 6 4 5 6 7 7 7 7 9 8 10 9 12
9 10 8 7 5 4 5 6 9 5 5 5 4 4 4 5 5 1 3 3 3 4 5 5 5 5 5 5 5 8 9 7 8 7 7 5 4 3 2 3 5 5 4 6 6 7 7 7 7 8 7 7 9 10
10 8 16 12 9 7 9 11 7 5 5 4 3 5 5 5 2 3 2 2 4 6 5 4 4 6 1 6 6 7 9 8 10 9 7 6 4 4 5 6 6 4 5 6 5 5 6 6 6 6 6 7 7 8
9 9 10 17 17 12 12 14 12 9 10 10 10 11 9 4 3 4 4 4 4 5 5 5 3 3 2 3 5 7 8 9 12 13 13 8 8 6 4 4 6 5 4 6 6 7 8 7 7 7 7 6 5 6
14 10 15 18 19 20 16 14 13 12 11 10 10 11 11 7 4 5 5 5 6 5 5 4 4 3 2 4 5 5 3 1 3 5 7 7 5 6 5 5 4 4 3 2 2 6 5 4 4 4 6 7 6 6
10 7 9 14 16 14 14 12 13 13 12 12 12 11 12 7 1 4 7 7 6 6 5 2 2 2 3 4 5 7 6 4 6 7 6 6 5 5 4 3 3 3 3 2 2 2 3 4 5 6 6 7 8 7
9 11 8 13 13 11 9 9 9 11 8 8 12 11 10 4 4 3 5 7 6 4 5 1 6 5 5 6 7 9 10 7 7 6 8 6 5 5 1 2 3 4 5 4 3 3 4 5 5 6 6 8 8 8
10 11 12 11 10 9 9 9 5 6 8 9 8 8 6 3 4 3 3 6 4 6 6 6 7 7 9 8 8 7 7 8 10 8 8 7 6 2 3 4 5 5 5 5 5 5 5 6 6 6 7 9 10 9
Wind_Direction
313 315 318 320 321 322 322 321 322 324 328 330 332 333 329 325 316 286 276 180 214 258 287 275 266 242 244 258 267 329 306 153 295 311 339 354 336 323 292 119 183 184 200 181 227 257 183 358 32 321 22 346 348 343
309 312 314 315 317 320 321 321 320 322 323 324 326 329 326 322 309 300 266 162 210 240 275 309 282 262 252 253 257 247 309 320 318 314 348 305 302 322 309 357 161 214 310 303 334 38 23 351 61 41 7 343 351 336
306 311 311 311 313 316 320 319 319 319 320 320 321 322 321 318 302 268 268 165 205 262 282 279 15 194 198 231 235 280 244 271 238 300 291 288 318 279 322 14 295 29 3 301 285 50 351 319 22 7 359 343 337 336
304 309 309 309 312 314 317 318 318 318 319 320 317 317 319 314 293 249 218 203 242 284 289 300 179 297 197 180 181 203 254 301 292 286 265 277 269 141 311 323 334 339 329 329 294 21 359 303 295 328 332 327 332 332
296 301 305 308 315 317 315 317 317 320 319 319 318 319 319 312 277 236 227 229 225 276 316 315 307 225 248 210 217 203 220 243 276 274 286 265 336 335 251 177 87 23 354 347 333 325 319 288 297 313 319 322 326 327
296 295 300 304 311 317 318 319 317 319 319 318 321 320 315 304 192 194 206 180 209 175 281 293 343 275 332 312 179 225 205 229 251 276 258 315 16 323 309 344 85 9 339 318 301 308 296 295 295 298 311 317 315 318
296 296 296 301 308 312 316 317 320 319 317 318 323 322 309 226 188 277 11 60 141 150 235 280 279 156 317 212 196 156 159 220 247 270 310 325 335 312 286 10 347 330 324 322 314 298 289 285 311 306 304 303 309 306
300 299 298 296 301 308 313 316 321 319 316 317 324 325 80 130 267 201 105 143 157 223 215 286 287 267 12 334 357 9 192 210 229 302 336 335 304 331 352 328 312 305 296 295 284 293 291 293 291 288 289 291 301 303
302 299 296 294 299 304 311 317 322 320 316 319 321 158 220 228 199 49 146 165 223 288 272 240 286 300 329 330 276 246 215 236 95 247 221 337 308 323 279 311 337 335 315 297 292 285 278 276 279 283 284 282 288 300
308 308 304 301 301 304 312 318 323 322 316 312 263 228 198 53 339 179 200 180 197 207 222 252 355 289 340 310 276 275 240 260 234 138 156 224 250 284 339 335 324 324 327 319 317 313 285 276 281 283 281 283 287 289
310 310 310 308 306 307 311 321 326 322 295 335 335 320 352 340 222 216 202 220 162 216 200 233 270 292 91 283 320 19 309 294 267 88 293 170 333 356 355 349 342 341 333 328 322 328 309 286 273 276 279 277 281 287
311 310 313 309 306 306 309 321 321 314 326 316 302 305 302 252 212 234 206 172 221 249 163 243 23 224 112 201 266 219 271 259 291 8 259 342 9 349 353 348 341 340 338 347 353 336 331 318 290 271 268 269 275 285
319 312 313 310 307 307 313 318 321 316 297 233 207 231 229 204 237 217 198 190 221 178 180 213 292 138 157 202 242 258 251 234 329 266 296 338 350 347 351 351 348 351 348 344 351 343 341 330 319 290 269 258 273 282
318 315 310 308 302 307 311 317 331 331 280 265 265 269 231 204 232 212 198 202 117 249 273 292 267 230 167 202 233 249 309 309 243 248 240 341 335 332 347 353 354 354 357 345 345 350 349 346 340 336 285 271 277 277
318 315 308 304 16 341 315 325 323 273 261 256 203 240 230 241 251 229 236 218 195 241 239 216 186 229 178 238 199 256 229 245 255 235 278 308 325 328 337 349 349 352 359 4 2 358 352 351 356 9 6 5 328 306
319 309 307 351 303 312 310 319 285 220 235 241 234 250 236 256 249 215 225 234 189 196 195 240 229 219 202 219 207 212 224 227 218 214 265 312 315 335 341 346 345 347 354 5 10 13 4 5 3 6 23 20 1 345
315 263 343 316 307 304 297 264 218 227 236 228 241 230 263 273 280 283 256 243 153 203 242 218 234 237 117 220 219 190 220 221 222 266 315 326 318 327 341 343 344 345 346 359 12 11 8 12 19 11 9 11 3 353
297 314 321 306 313 298 260 224 246 242 245 239 247 249 217 253 272 265 239 211 207 221 223 233 244 212 220 199 196 213 227 246 257 272 296 309 315 325 332 350 342 345 345 351 354 14 22 7 14 23 9 358 15 11
315 309 301 306 311 301 276 225 230 261 245 261 258 261 261 261 253 258 266 233 226 252 228 206 236 233 230 225 253 269 206 231 263 263 272 264 281 340 330 332 339 351 345 352 357 1 11 27 21 12 18 15 8 7
304 304 292 309 255 230 257 239 218 260 265 290 266 260 247 258 269 252 242 214 203 207 213 225 234 246 243 235 239 252 251 205 225 264 267 109 253 266 312 339 351 319 341 358 7 14 3 13 21 19 21 23 14 11
300 265 289 181 234 234 274 276 243 249 281 261 284 274 267 237 248 244 239 204 212 231 239 238 248 249 244 249 266 227 211 201 207 267 312 253 18 318 319 330 337 330 337 4 350 22 8 8 13 13 19 23 12 16
258 310 267 200 249 239 254 237 255 322 261 266 275 255 268 269 264 255 223 212 240 239 247 251 251 244 242 227 220 220 217 183 189 130 153 187 266 350 349 359 342 341 341 12 346 4 15 6 6 7 26 15 17 17
245 230 231 226 238 232 257 218 237 223 247 242 231 247 223 225 236 151 227 232 257 283 277 267 249 256 253 261 202 199 198 186 173 184 159 198 203 339 331 3 6 350 344 352 350 357 27 12 10 10 6 11 7 9
237 228 231 229 211 250 236 228 213 255 243 234 245 251 255 241 165 236 244 261 280 322 284 267 252 240 208 220 207 188 181 187 160 152 157 204 258 84 358 18 17 24 354 357 3 14 25 35 21 23 16 8 5 3
265 222 229 233 223 227 230 229 224 226 236 242 249 251 240 198 235 236 243 270 27 7 343 292 240 234 225 194 190 177 152 176 174 164 154 174 157 159 130 108 77 41 20 23 30 31 36 12 25 25 30 14 6 5
237 210 205 217 219 216 216 233 224 242 235 244 243 242 211 224 235 237 195 32 356 347 345 328 317 284 247 249 179 171 182 192 166 165 145 164 126 97 99 78 108 89 32 30 15 16 32 17 23 13 21 18 21 6
235 232 204 221 247 276 266 255 265 267 263 237 241 190 211 223 238 153 130 55 16 5 345 327 307 288 271 214 166 168 170 163 186 149 132 132 109 95 93 108 104 85 49 27 34 21 14 19 29 35 24 24 24 17
231 246 234 225 222 232 264 266 271 255 236 197 234 229 211 203 245 87 66 49 350 334 360 14 2 333 356 134 143 141 143 127 121 122 118 116 126 135 132 122 103 49 70 41 20 31 19 18 30 40 38 33 35 35
234 234 252 248 247 253 239 245 252 260 280 284 278 280 278 300 342 308 341 344 326 312 314 348 26 9 96 112 136 145 152 161 167 175 182 170 168 169 176 162 162 176 133 115 65 37 43 38 28 30 47 42 48 50
232 228 240 239 245 246 248 256 267 274 282 296 302 294 288 284 353 12 321 320 321 320 328 329 339 286 221 162 127 103 80 117 291 250 218 211 165 141 159 159 163 151 144 126 85 122 184 213 143 60 39 45 30 33
239 218 224 237 251 257 262 259 251 256 257 265 270 270 266 290 31 51 22 332 303 290 280 221 56 298 182 173 157 152 125 78 72 52 41 78 119 129 132 147 155 126 128 118 99 59 71 68 57 59 55 66 61 50
236 226 223 233 243 251 257 260 258 256 247 233 240 247 255 244 211 74 10 342 345 23 345 37 107 72 63 81 78 72 72 100 89 71 73 69 67 53 105 102 110 119 119 124 113 88 71 70 76 77 72 67 67 62
227 233 240 253 258 269 262 243 261 251 239 231 239 210 202 192 90 34 25 15 355 2 41 85 91 69 66 76 92 93 88 85 77 59 58 49 18 346 150 116 97 100 115 112 105 99 93 96 90 86 83 83 80 75